Regional Weather Roundup
Issued by NWS Sterling, VA

Home | Current Version | Previous Version | Graphics & Text | Print | Product List | Glossary On
Versions: 1 2 3 4 5 6 7 8 9 10 11 12 13 14 15 16 17 18 19 20 21 22 23 24 25 26 27
000
ASUS41 KLWX 190810
RWRLWX

REGIONAL WEATHER ROUNDUP
NATIONAL WEATHER SERVICE BALTIMORE MD/WASHINGTON DC
400 AM EDT SAT APR 19 2014

Note: "FAIR" indicates few or no clouds below 12,000 feet
with no significant weather and/or obstructions to visibility.
 TC=TEMPERATURE CELSIUS

 * =Non NWS site. Station does not report precipitation (e.g. rain,
    snow, etc.), thunder, or fog.

DCZ001-MDZ009-015-VAZ040>042-051-053>054-190900-
WASHINGTON METRO

CITY           SKY/WX    TMP DP  RH WIND       PRES   REMARKS
WASHINGTON NAT CLOUDY    49  38  65 CALM      30.24F
DULLES         CLOUDY    40  38  93 CALM      30.23F
ANDREWS AFB    CLOUDY    42  37  84 CALM      30.23F
FT BELVOIR     CLOUDY    41  39  93 CALM      30.24F
QUANTICO       CLOUDY    45  40  82 NW6       30.24F
COLLEGE PARK*  CLOUDY    43  37  81 CALM      30.23F
LEESBURG*      CLOUDY    43  39  87 CALM      30.24F
MANASSAS*      CLOUDY    41  41 100 CALM      30.23F
GAITHERSBURG*  CLOUDY    39  36  87 CALM      30.25F

$$

MDZ006>007-011-014-190900-
BALTIMORE METRO

CITY           SKY/WX    TMP DP  RH WIND       PRES   REMARKS
BWI AIRPORT    CLOUDY    41  36  82 CALM      30.23F
MD SCIENCE CTR   N/A     47  35  63 MISG      30.25F
MARTIN STATE   CLOUDY    43  41  93 CALM      30.27R
ANNAPOLIS      CLOUDY    45  40  82 CALM      30.24F
FORT MEADE*    CLOUDY    36  34  93 CALM      30.26F

$$

MDZ012-015-019>023-190900-
MARYLAND EASTERN SHORE

CITY           SKY/WX    TMP DP  RH WIND       PRES   REMARKS
OCEAN CITY     CLOUDY    43  39  86 CALM      30.25F
SALISBURY      CLOUDY    44  39  82 CALM      30.24F
BAY BRIDGE AP* CLOUDY    45  43  93 CALM      30.25S
CAMBRIDGE*     CLOUDY    43  39  87 CALM      30.23F
EASTON*        CLOUDY    44  44 100 CALM      30.28S

$$

MDZ017>025-190900-
SOUTHERN MARYLAND

CITY           SKY/WX    TMP DP  RH WIND       PRES   REMARKS
PATUXENT RIVER CLOUDY    45  41  86 CALM      30.24F
ST INIGOES     CLOUDY    45  42  89 CALM      30.24S
LEONARDTOWN*   CLOUDY    43  37  81 CALM      30.24F

$$

MDZ003>005-190900-
NORTH CENTRAL MARYLAND

CITY           SKY/WX    TMP DP  RH WIND       PRES   REMARKS
FREDERICK*     CLOUDY    39  39 100 NE3       30.27F
HAGERSTOWN APT CLOUDY    44  34  67 E3        30.23F
WESTMINSTER*   CLOUDY    43  36  75 CALM      30.23F

$$

MDZ501>502-190900-
WESTERN MARYLAND

CITY           SKY/WX    TMP DP  RH WIND       PRES   REMARKS
OAKLAND*       CLOUDY    46  27  46 N3        30.23R
CUMBERLAND*    CLOUDY    43  37  81 CALM      30.28R

$$

VAZ025>031-190900-
SHENANDOAH VALLEY

CITY           SKY/WX    TMP DP  RH WIND       PRES   REMARKS
WINCHESTER*    CLOUDY    43  37  81 N3        30.22S
STAUNTON*      CLOUDY    42  38  87 CALM      30.22F

$$

WVZ021-048>050-054>055-190900-
EASTERN WEST VIRGINIA PANHANDLE

CITY           SKY/WX    TMP DP  RH WIND       PRES   REMARKS
MARTINSBURG    CLOUDY    42  35  76 CALM      30.23S
PETERSBURG*    CLOUDY    45  42  89 CALM      30.24S

$$

VAZ036>039-050-190900-
CENTRAL FOOTHILLS

CITY           SKY/WX    TMP DP  RH WIND       PRES   REMARKS
CHARLOTTESVILL CLOUDY    45  38  76 CALM      30.21F
CULPEPER*      CLOUDY    43  43 100 CALM      30.23F

$$

VAZ055>057-190900-
NORTH AND CENTRAL PIEDMONT

CITY           SKY/WX    TMP DP  RH WIND       PRES   REMARKS
FREDERICKSBRG* CLOUDY    45  41  87 CALM      30.23S
STAFFORD*      CLOUDY    40  40 100 CALM      30.27F

$$

NCZ024-NYZ072-PAZ021-071-VAZ022-071-190900-
OTHER REGIONAL OBSERVATIONS

CITY           SKY/WX    TMP DP  RH WIND       PRES   REMARKS
NEW YORK CITY  MOCLDY    43  33  68 CALM      30.25F
PHILADELPHIA   CLOUDY    43  37  79 W6        30.27S
PITTSBURGH     MOCLDY    48  39  71 N6        30.26R
ROANOKE        CLOUDY    46  40  79 CALM      30.23S
RICHMOND       CLOUDY    47  41  80 CALM      30.23S
RALEIGH        RAIN      48  45  89 NE7       30.18F FOG

$$

ANZ530>537-190900-
MARINE OBSERVATIONS

STATION/POSITION TIME  TEMP    WIND        PRES
                       AIR SEA DIR/SP/G
                 (UTC) (F)     (DEG/KT/KT) (MB)
THOMAS PT LIGHT  0800   48 52  290/  4/  4 1024.5F
BALT KEY BRIDGE  0800   46     230/  4/  4 1024.2F
COVE POINT       0800   46     220/  2/  3 1023.8F
LEWISETTA        0800   46 53  150/  4/  4 1023.7F
SOLOMONS ISLAND  0800      51                N/A
PINEY POINT      0800          180/  3/  3   N/A

$$




USA.gov is the U.S. government's official web portal to all federal, state and local government web resources and services.